FREGAT DEB, 45820

Orbit data source: Space-Track

FREGAT DEB, 45820 is space debris in LEO originally from a launch on Mon, 18 Jul 2011 UTC launched from the Tyuratam Missile And Space Complex (TTMTR). Debris objects in space refer to the collection of defunct objects orbiting the Earth. Examples of debris include non-operational satellites, rocket bodies, and fragments generated from explosions, collisions, or faulty payload assembly.

Loading next visibility...
FREGAT DEB details
Identifier
45820, 2011-037BE
Orbit
LEO
Last TLE update1 day ago
Origin
Flag of CISVVKO VKS (CIS)
ManufacturerLavochkin
MissionSpacecraft
Bus & MotorUnknown
MassUnknown
Launch date (UTC)
2011-07-18 (13 years ago)
Launch vehicleUnknown
Launch site
Tyuratam Missile And Space Complex (TTMTR)
Object type
Payload
Rocket body
Debris
Shape & HBRUnknown
Radar Cross SectionSmall (<0.1 m²)

Expand to show TLE details & history

TLE from 1 day ago
0 FREGAT DEB
1 45820U 11037BE  24360.45435487  .00017456  00000-0  11213-1 0  9998
2 45820  51.5342  60.6400 1560262  10.6384 352.3792 11.62140491190393
Epoch: 2024-12-25T10:54Z
Definitive object data (Epoch: 2024-12-25T10:54:16.26Z)
Latitude-0.00003°
Longitude162.62435°
Altitude586.881 km
Speed8.129 km/s
True Right ascension04h 02m 33s
True Declination0° 00' 00"
Sunlit
Object was in full shadow at TLE epoch
Visualization TLE readout
Latitude-22.70315°
Longitude-1.38713°
Altitude3,076.044 km
Speed5.996 km/s
Apparent Right ascension17h 59m 19s
Apparent Declination-62° 27' 08"
Sunlit
Object is in daylight
Visualization observer readout
Local Sidereal Time16:23:18
Azimuth168.812° S
Elevation-14.174°
Doppler factor1
Orbital elements
Apogee altitude3,140.05 km
Perigee altitude570.754 km
Semi-major axis8,233.539 km
Eccentricity0.1560262
Inclination51.5342°
RAAN60.64°
Arg. of periapsis10.6384°
True anomaly349.44815°
Mean anomaly352.3792°
Eccentric anomaly350.97722°
Mean motion2.90511 °/min
BSTAR0.011213
Orbital period123.92 mins
Loading maneuver chart data...
Loading historical data...
Loading historical data...
Loading historical data...
Loading historical data...
Loading historical data...
Loading historical data...
Loading historical data...

FREGAT DEB Visibility forecast

Observer location: undefined°, undefined

Span
Click to sort rows by Start time (UTC) header in descending order
Start Az.
Max El. time (UTC)
Max El. Az.
Max El.
End time (UTC)
End Az.
9 mins2024-12-27 06:24:02.998Z208.88° SW2024-12-27 06:28:02.998Z126.116° SE38.421°2024-12-27 06:33:02.998Z60.154° ENE
11 mins2024-12-27 08:34:02.998Z284.211° WNW2024-12-27 08:38:02.998Z354.223° N33.108°2024-12-27 08:45:02.998Z52.884° ENE
16 mins2024-12-27 10:44:02.998Z312.065° NW2024-12-27 10:49:02.998Z8.801° NNE33.191°2024-12-27 11:00:02.998Z80.434° E
23 mins2024-12-27 12:53:02.998Z309.107° NW2024-12-27 13:01:02.998Z36.519° NE44.358°2024-12-27 13:16:02.998Z121.95° SE
24 mins2024-12-27 15:03:02.998Z292.556° NW2024-12-27 15:12:02.998Z230.72° WSW35.685°2024-12-27 15:27:02.998Z166.069° S
|